Weather History for Fayetteville, NC

Change the Weather History Date:

Wednesday, April 16, 2014

  Actual Average Record
Temperature  
Mean Temperature 47 °F 63 °F  
Max Temperature 57 °F 75 °F 94 °F (2006)
Min Temperature 36 °F 51 °F 28 °F (1943)
Degree Days  
Heating Degree Days 18 4  
Month to date heating degree days 54 93  
Since 1 July heating degree days 2876 2662  
Cooling Degree Days 0 2  
Month to date cooling degree days 35 26  
Year to date cooling degree days 39 42  
Moisture  
Dew Point 27 °F    
Average Humidity 47    
Maximum Humidity 67    
Minimum Humidity 27    
Precipitation  
Precipitation 0.00 in 0.07 in 2.00 in (1989)
Month to date precipitation 1.35 1.68  
Year to date precipitation 11.71 11.29  
Sea Level Pressure  
Sea Level Pressure 30.28 in    
Wind  
Wind Speed 12 mph (NNE)    
Max Wind Speed 23 mph    
Max Gust Speed 28 mph    
Visibility 10 miles    
Events      
T = Trace of Precipitation, MM = Missing Value Source: NWS Daily Summary

Daily Weather History Graph

Daily Weather History Graph

Search for Another Location

Airport:

Trip Planner

Search our weather history database for the weather conditions in past years. The results will help you decide how hot, cold, wet, or windy it might be!

Date:

Astronomy

Apr. 16, 2014 Rise Set
Actual Time 6:42 AM EDT 7:48 PM EDT
Civil Twilight 6:16 AM EDT 8:14 PM EDT
Nautical Twilight 5:45 AM EDT 8:46 PM EDT
Astronomical Twilight 5:13 AM EDT 9:18 PM EDT
Moon 9:27 PM EDT (4/16) 7:30 AM EDT (4/16)
Length of Visible Light 13h 58m
Length of Day
13h 06m
Full, 98% of the Moon is Illuminated
Apr 16
Full
Apr 22
Last Quarter
Apr 29
New
May 6
First Quarter
May 14
Full

Hourly Weather History & Observations

Time (EDT) Temp. Windchill Dew Point Humidity Pressure Visibility Wind Dir Wind Speed Gust Speed Precip Events Conditions
12:53 AM 42.1 °F 34.2 °F 32.0 °F 67% 30.00 in 10.0 mi NNW 16.1 mph 25.3 mph N/A   Clear
1:53 AM 41.0 °F 33.9 °F 30.0 °F 65% 30.04 in 10.0 mi NNW 12.7 mph - N/A   Clear
2:53 AM 39.9 °F 30.8 °F 28.0 °F 63% 30.08 in 10.0 mi North 18.4 mph 24.2 mph N/A   Mostly Cloudy
3:53 AM 39.0 °F 31.4 °F 27.0 °F 62% 30.12 in 10.0 mi NNW 12.7 mph - N/A   Clear
4:53 AM 37.9 °F 30.5 °F 27.0 °F 65% 30.15 in 10.0 mi North 11.5 mph - N/A   Clear
5:53 AM 37.0 °F 29.8 °F 26.1 °F 65% 30.20 in 10.0 mi North 10.4 mph - N/A   Clear
6:53 AM 36.0 °F 27.1 °F 25.0 °F 64% 30.24 in 10.0 mi North 13.8 mph - N/A   Clear
7:53 AM 37.9 °F 29.6 °F 26.1 °F 62% 30.28 in 10.0 mi North 13.8 mph - N/A   Clear
8:53 AM 41.0 °F 32.5 °F 26.1 °F 55% 30.31 in 10.0 mi NNE 17.3 mph 25.3 mph N/A   Clear
9:53 AM 43.0 °F 35.1 °F 24.1 °F 47% 30.34 in 10.0 mi NE 17.3 mph 25.3 mph N/A   Clear
10:53 AM 46.0 °F 39.0 °F 24.1 °F 42% 30.36 in 10.0 mi North 17.3 mph 24.2 mph N/A   Clear
11:53 AM 48.0 °F - 21.9 °F 36% 30.36 in 10.0 mi NNE 17.3 mph 25.3 mph N/A   Clear
12:53 PM 51.1 °F - 23.0 °F 33% 30.35 in 10.0 mi NNE 17.3 mph 23.0 mph N/A   Clear
2:53 PM 55.0 °F - 24.1 °F 30% 30.33 in 10.0 mi ENE 11.5 mph 19.6 mph N/A   Clear
3:53 PM 55.0 °F - 25.0 °F 31% 30.32 in 10.0 mi NNE 11.5 mph 20.7 mph N/A   Clear
4:53 PM 55.9 °F - 24.1 °F 29% 30.32 in 10.0 mi ENE 10.4 mph - N/A   Clear
5:53 PM 55.0 °F - 23.0 °F 29% 30.33 in 10.0 mi ENE 9.2 mph - N/A   Clear
6:53 PM 54.0 °F - 26.1 °F 34% 30.35 in 10.0 mi ENE 8.1 mph - N/A   Clear
7:53 PM 48.9 °F - 28.9 °F 46% 30.36 in 10.0 mi ENE 6.9 mph - N/A   Clear
8:53 PM 46.9 °F - 30.0 °F 52% 30.39 in 10.0 mi NE 5.8 mph - N/A   Clear
9:53 PM 44.1 °F 41.5 °F 30.9 °F 60% 30.40 in 10.0 mi NE 4.6 mph - N/A   Clear
10:53 PM 43.0 °F 39.5 °F 32.0 °F 65% 30.41 in 10.0 mi NE 5.8 mph - N/A   Clear
11:53 PM 43.0 °F 38.2 °F 30.9 °F 62% 30.42 in 10.0 mi ENE 8.1 mph - N/A   Clear